CAL1 ZSQD-RKSI

Flight info

Callsign CAL1
Flight time 0h 50m
Altitude 29100
Route LAT81D LATUX W209 LILMO/N0497F292 DCT GONAV Y644 REBIT REBIT1Y
Aircraft A359/H-SDE2E3GHIJ3J4J5LM1ORWXY/LB1D1

Departure

Time 2026-04-15 07:29
Airport Qingdao Jiaodong International Airport (ZSQD)

Arrival

Time 2026-04-15 08:19
Airport Incheon International Airport (RKSI)
Time Latitude Longitude Altitude Speed Heading
2026-04-15 07:15 36.36685 120.09278 38 ft 0 kts 211°
2026-04-15 07:21 36.36695 120.09285 38 ft 3 kts 211°
2026-04-15 07:21 36.36712 120.09298 38 ft 3 kts 211°
2026-04-15 07:21 36.36730 120.09311 34 ft 3 kts 211°
2026-04-15 07:21 36.36747 120.09324 39 ft 3 kts 211°
2026-04-15 07:22 36.36763 120.09341 31 ft 3 kts 249°
2026-04-15 07:22 36.36765 120.09366 27 ft 3 kts 274°
2026-04-15 07:22 36.36763 120.09390 39 ft 3 kts 295°
2026-04-15 07:22 36.36751 120.09411 43 ft 3 kts 323°
2026-04-15 07:23 36.36737 120.09420 40 ft 0 kts 345°
2026-04-15 07:24 36.36753 120.09414 39 ft 7 kts 344°
2026-04-15 07:24 36.36808 120.09414 39 ft 9 kts 23°
2026-04-15 07:24 36.36846 120.09481 39 ft 11 kts 72°
2026-04-15 07:24 36.36884 120.09568 40 ft 11 kts 32°
2026-04-15 07:25 36.36955 120.09555 42 ft 11 kts 340°
2026-04-15 07:25 36.37033 120.09524 42 ft 13 kts 342°
2026-04-15 07:25 36.37135 120.09485 38 ft 18 kts 342°
2026-04-15 07:25 36.37264 120.09433 39 ft 21 kts 342°
2026-04-15 07:26 36.37408 120.09377 39 ft 23 kts 342°
2026-04-15 07:26 36.37564 120.09315 43 ft 24 kts 342°
2026-04-15 07:26 36.37725 120.09251 44 ft 25 kts 342°
2026-04-15 07:26 36.37874 120.09191 45 ft 17 kts 342°
2026-04-15 07:27 36.37987 120.09157 45 ft 10 kts
2026-04-15 07:27 36.38027 120.09202 46 ft 7 kts 69°
2026-04-15 07:27 36.38041 120.09272 46 ft 10 kts 75°
2026-04-15 07:27 36.38045 120.09342 45 ft 4 kts 126°
2026-04-15 07:28 36.38014 120.09361 42 ft 6 kts 162°
2026-04-15 07:28 36.37900 120.09404 44 ft 43 kts 163°
2026-04-15 07:28 36.37364 120.09618 43 ft 116 kts 162°
2026-04-15 07:28 36.36400 120.09996 116 ft 167 kts 160°
2026-04-15 07:29 36.35299 120.10469 926 ft 165 kts 161°
2026-04-15 07:29 36.34264 120.10950 1870 ft 158 kts 153°
2026-04-15 07:29 36.33266 120.11725 2307 ft 183 kts 146°
2026-04-15 07:29 36.32136 120.12704 2645 ft 211 kts 145°
2026-04-15 07:30 36.30872 120.13771 3101 ft 233 kts 146°
2026-04-15 07:30 36.29431 120.14938 3562 ft 256 kts 147°
2026-04-15 07:30 36.27900 120.16142 4348 ft 265 kts 147°
2026-04-15 07:30 36.26320 120.17374 5224 ft 271 kts 147°
2026-04-15 07:31 36.24705 120.18643 6144 ft 277 kts 147°
2026-04-15 07:31 36.23076 120.19915 7051 ft 282 kts 147°
2026-04-15 07:31 36.21414 120.21227 8034 ft 285 kts 146°
2026-04-15 07:31 36.19733 120.22559 9033 ft 289 kts 147°
2026-04-15 07:32 36.18030 120.23905 10011 ft 292 kts 147°
2026-04-15 07:32 36.16272 120.25293 10597 ft 311 kts 147°
2026-04-15 07:32 36.14376 120.26792 10948 ft 335 kts 147°
2026-04-15 07:32 36.12337 120.28400 11300 ft 358 kts 147°
2026-04-15 07:33 36.10197 120.30084 11890 ft 369 kts 147°
2026-04-15 07:33 36.08007 120.31807 12659 ft 376 kts 147°
2026-04-15 07:33 36.05783 120.33555 13475 ft 381 kts 147°
2026-04-15 07:33 36.03536 120.35320 14211 ft 386 kts 147°
2026-04-15 07:34 36.01248 120.37118 14835 ft 394 kts 148°
2026-04-15 07:34 35.98913 120.38950 15442 ft 401 kts 148°
2026-04-15 07:34 35.96533 120.40817 16108 ft 409 kts 148°
2026-04-15 07:34 35.94107 120.42718 16763 ft 415 kts 149°
2026-04-15 07:35 35.91677 120.44620 17391 ft 422 kts 149°
2026-04-15 07:35 35.89173 120.46579 18028 ft 429 kts 149°
2026-04-15 07:35 35.86632 120.48565 18618 ft 436 kts 150°
2026-04-15 07:35 35.84059 120.50575 19257 ft 440 kts 150°
2026-04-15 07:36 35.81462 120.52601 19922 ft 443 kts 150°
2026-04-15 07:36 35.78846 120.54642 20590 ft 447 kts 150°
2026-04-15 07:36 35.76203 120.56701 21266 ft 451 kts 150°
2026-04-15 07:36 35.73536 120.58777 21966 ft 455 kts 150°
2026-04-15 07:37 35.70848 120.60869 22658 ft 459 kts 150°
2026-04-15 07:37 35.69021 120.62289 23115 ft 462 kts 150°
2026-04-15 07:37 35.65403 120.65101 23935 ft 467 kts 151°
2026-04-15 07:37 35.62642 120.67245 24477 ft 472 kts 151°
2026-04-15 07:38 35.59851 120.69410 25038 ft 475 kts 152°
2026-04-15 07:38 35.57079 120.71667 25585 ft 482 kts 147°
2026-04-15 07:38 35.54535 120.74395 26121 ft 491 kts 137°
2026-04-15 07:38 35.52398 120.77706 26636 ft 501 kts 125°
2026-04-15 07:39 35.51268 120.80203 26950 ft 506 kts 117°
2026-04-15 07:39 35.49838 120.85761 27563 ft 516 kts 99°
2026-04-15 07:39 35.49588 120.88663 27864 ft 519 kts 91°
2026-04-15 07:39 35.49859 120.93088 28293 ft 521 kts 76°
2026-04-15 07:40 35.50993 120.97290 28741 ft 519 kts 60°
2026-04-15 07:40 35.52914 121.00998 29185 ft 513 kts 44°
2026-04-15 07:40 35.55317 121.04235 29640 ft 513 kts 40°
2026-04-15 07:40 35.57737 121.07509 30084 ft 521 kts 44°
2026-04-15 07:41 35.59957 121.11081 30435 ft 532 kts 50°
2026-04-15 07:41 35.61906 121.14930 30765 ft 541 kts 56°
2026-04-15 07:41 35.63670 121.19059 31083 ft 548 kts 59°
2026-04-15 07:41 35.65299 121.23331 31405 ft 554 kts 61°
2026-04-15 07:42 35.66870 121.27692 31716 ft 559 kts 62°
2026-04-15 07:42 35.68433 121.32108 32011 ft 563 kts 62°
2026-04-15 07:42 35.70006 121.36542 32296 ft 568 kts 62°
2026-04-15 07:42 35.71602 121.41005 32583 ft 572 kts 62°
2026-04-15 07:43 35.73221 121.45479 32858 ft 575 kts 62°
2026-04-15 07:43 35.74868 121.49998 33174 ft 578 kts 62°
2026-04-15 07:43 35.76516 121.54505 33557 ft 579 kts 61°
2026-04-15 07:43 35.78156 121.58988 33929 ft 580 kts 62°
2026-04-15 07:44 35.79813 121.63525 34268 ft 581 kts 62°
2026-04-15 07:44 35.81470 121.68070 34665 ft 580 kts 62°
2026-04-15 07:44 35.83121 121.72612 35066 ft 580 kts 62°
2026-04-15 07:44 35.84764 121.77139 35430 ft 579 kts 62°
2026-04-15 07:45 35.86410 121.81682 35784 ft 579 kts 62°
2026-04-15 07:45 35.88052 121.86219 36128 ft 579 kts 62°
2026-04-15 07:45 35.89694 121.90764 36457 ft 580 kts 62°
2026-04-15 07:45 35.91337 121.95316 36791 ft 580 kts 62°
2026-04-15 07:46 35.92973 121.99857 37139 ft 579 kts 62°
2026-04-15 07:46 35.94608 122.04401 37481 ft 579 kts 62°
2026-04-15 07:46 35.96243 122.08954 37805 ft 579 kts 62°
2026-04-15 07:46 35.97872 122.13494 38115 ft 579 kts 62°
2026-04-15 07:47 35.99498 122.18034 38423 ft 579 kts 62°
2026-04-15 07:47 36.01130 122.22594 38710 ft 579 kts 62°
2026-04-15 07:47 36.02751 122.27134 38948 ft 579 kts 62°
2026-04-15 07:47 36.04372 122.31681 39218 ft 578 kts 62°
2026-04-15 07:48 36.05971 122.36173 39460 ft 577 kts 62°
2026-04-15 07:48 36.07584 122.40708 39700 ft 577 kts 62°
2026-04-15 07:48 36.09194 122.45244 39926 ft 576 kts 62°
2026-04-15 07:48 36.10809 122.49796 40011 ft 580 kts 62°
2026-04-15 07:49 36.14073 122.59011 40012 ft 588 kts 63°
2026-04-15 07:49 36.17347 122.68294 40005 ft 588 kts 63°
2026-04-15 07:50 36.20609 122.77581 40002 ft 588 kts 63°
2026-04-15 07:50 36.23871 122.86890 40006 ft 588 kts 63°
2026-04-15 07:51 36.27100 122.96128 40009 ft 588 kts 63°
2026-04-15 07:51 36.30347 123.05448 40008 ft 588 kts 63°
2026-04-15 07:52 36.33586 123.14773 40008 ft 588 kts 63°
2026-04-15 07:52 36.36816 123.24099 40011 ft 588 kts 63°
2026-04-15 07:53 36.40379 123.33183 40010 ft 580 kts 51°
2026-04-15 07:53 36.42829 123.37097 40009 ft 568 kts 39°
2026-04-15 07:53 36.45720 123.40340 40016 ft 555 kts 28°
2026-04-15 07:54 36.51989 123.45896 40008 ft 551 kts 25°
2026-04-15 07:54 36.58320 123.51140 40008 ft 550 kts 25°
2026-04-15 07:55 36.64686 123.56430 40012 ft 550 kts 25°
2026-04-15 07:55 36.70349 123.63063 40011 ft 569 kts 43°
2026-04-15 07:56 36.72851 123.66904 40008 ft 571 kts 45°
2026-04-15 07:56 36.77694 123.74806 40006 ft 573 kts 47°
2026-04-15 07:57 36.82478 123.82757 40005 ft 572 kts 47°
2026-04-15 07:57 36.87285 123.90691 40009 ft 571 kts 46°
2026-04-15 07:58 36.92064 123.98541 40005 ft 570 kts 46°
2026-04-15 07:58 36.96869 124.06438 40004 ft 570 kts 46°
2026-04-15 07:59 37.01652 124.14321 40010 ft 569 kts 46°
2026-04-15 07:59 37.06425 124.22209 40003 ft 568 kts 47°
2026-04-15 08:00 37.11193 124.30109 39992 ft 568 kts 47°
2026-04-15 08:00 37.15846 124.38125 40005 ft 574 kts 55°
2026-04-15 08:00 37.17482 124.42728 39990 ft 582 kts 70°
2026-04-15 08:01 37.18311 124.47701 40002 ft 585 kts 82°
2026-04-15 08:01 37.18767 124.57922 39990 ft 588 kts 89°
2026-04-15 08:02 37.18771 124.66451 39991 ft 589 kts 90°
2026-04-15 08:02 37.18815 124.76005 39988 ft 589 kts 89°
2026-04-15 08:03 37.18958 124.85217 39985 ft 589 kts 88°
2026-04-15 08:03 37.19174 124.95493 39982 ft 590 kts 88°
2026-04-15 08:04 37.19373 125.05743 39412 ft 585 kts 88°
2026-04-15 08:04 37.19467 125.10858 38564 ft 589 kts 88°
2026-04-15 08:04 37.19557 125.15996 37542 ft 592 kts 88°
2026-04-15 08:04 37.19646 125.21182 36601 ft 593 kts 88°
2026-04-15 08:05 37.19733 125.26359 35702 ft 594 kts 88°
2026-04-15 08:05 37.19818 125.31539 34780 ft 594 kts 87°
2026-04-15 08:05 37.19900 125.36661 33839 ft 595 kts 87°
2026-04-15 08:05 37.19982 125.41848 32831 ft 593 kts 87°
2026-04-15 08:06 37.20014 125.46998 31860 ft 590 kts 91°
2026-04-15 08:06 37.19399 125.52077 30890 ft 588 kts 106°
2026-04-15 08:06 37.18089 125.56913 29936 ft 583 kts 112°
2026-04-15 08:06 37.16629 125.61626 29163 ft 575 kts 112°
2026-04-15 08:07 37.15214 125.66280 28546 ft 566 kts 112°
2026-04-15 08:07 37.13855 125.70872 27914 ft 559 kts 111°
2026-04-15 08:07 37.12533 125.75416 27296 ft 551 kts 111°
2026-04-15 08:07 37.11284 125.79917 26646 ft 545 kts 106°
2026-04-15 08:08 37.10633 125.84552 26072 ft 537 kts 96°
2026-04-15 08:08 37.10257 125.89183 25486 ft 530 kts 95°
2026-04-15 08:08 37.09897 125.93752 24912 ft 523 kts 95°
2026-04-15 08:08 37.09525 125.98260 24334 ft 517 kts 95°
2026-04-15 08:09 37.09200 126.02713 23732 ft 510 kts 89°
2026-04-15 08:09 37.09235 126.07122 23114 ft 503 kts 87°
2026-04-15 08:09 37.09307 126.11470 22454 ft 496 kts 87°
2026-04-15 08:09 37.09367 126.15700 21815 ft 489 kts 88°
2026-04-15 08:10 37.09425 126.19929 21180 ft 482 kts 87°
2026-04-15 08:10 37.09773 126.24006 20320 ft 458 kts 77°
2026-04-15 08:10 37.10600 126.27831 18890 ft 443 kts 69°
2026-04-15 08:10 37.11601 126.31437 17366 ft 433 kts 68°
2026-04-15 08:11 37.12593 126.34887 15933 ft 420 kts 68°
2026-04-15 08:11 37.13571 126.38281 14602 ft 407 kts 68°
2026-04-15 08:11 37.14513 126.41551 13430 ft 390 kts 68°
2026-04-15 08:11 37.15414 126.44680 12311 ft 373 kts 68°
2026-04-15 08:12 37.16271 126.47661 11595 ft 350 kts 68°
2026-04-15 08:12 37.17060 126.50417 11163 ft 323 kts 68°
2026-04-15 08:12 37.17796 126.52967 10811 ft 299 kts 66°
2026-04-15 08:12 37.18646 126.55120 10365 ft 280 kts 54°
2026-04-15 08:13 37.19732 126.57111 9719 ft 273 kts 52°
2026-04-15 08:13 37.20842 126.58984 8774 ft 263 kts 47°
2026-04-15 08:13 37.22238 126.60399 7621 ft 257 kts 24°
2026-04-15 08:13 37.23959 126.60839 6529 ft 253 kts 357°
2026-04-15 08:14 37.25633 126.60240 5434 ft 251 kts 332°
2026-04-15 08:14 37.27085 126.59038 4397 ft 249 kts 326°
2026-04-15 08:14 37.28451 126.57756 3550 ft 240 kts 325°
2026-04-15 08:14 37.29759 126.56561 3041 ft 224 kts 326°
2026-04-15 08:15 37.30984 126.55481 2906 ft 206 kts 326°
2026-04-15 08:15 37.32127 126.54465 2818 ft 203 kts 326°
2026-04-15 08:15 37.33278 126.53439 2602 ft 202 kts 326°
2026-04-15 08:15 37.34385 126.52455 2357 ft 189 kts 326°
2026-04-15 08:16 37.35428 126.51527 2114 ft 177 kts 325°
2026-04-15 08:16 37.36395 126.50666 1900 ft 164 kts 324°
2026-04-15 08:16 37.37297 126.49865 1685 ft 152 kts 324°
2026-04-15 08:16 37.38123 126.49130 1497 ft 139 kts 323°
2026-04-15 08:17 37.38887 126.48449 1305 ft 131 kts 323°
2026-04-15 08:17 37.39621 126.47796 1134 ft 129 kts 323°
2026-04-15 08:17 37.40353 126.47145 953 ft 130 kts 322°
2026-04-15 08:17 37.41098 126.46482 788 ft 133 kts 321°
2026-04-15 08:18 37.41854 126.45808 615 ft 133 kts 322°
2026-04-15 08:18 37.42601 126.45143 416 ft 131 kts 321°
2026-04-15 08:18 37.43343 126.44483 271 ft 131 kts 321°
2026-04-15 08:18 37.44086 126.43832 106 ft 130 kts 320°
2026-04-15 08:19 37.44807 126.43187 40 ft 119 kts 325°
2026-04-15 08:19 37.45294 126.42755 39 ft 52 kts 326°
2026-04-15 08:19 37.45491 126.42646 39 ft 14 kts 356°
2026-04-15 08:19 37.45575 126.42695 39 ft 15 kts 52°
2026-04-15 08:20 37.45638 126.42810 39 ft 17 kts 55°
2026-04-15 08:20 37.45714 126.42945 39 ft 20 kts 54°
2026-04-15 08:20 37.45804 126.43089 39 ft 21 kts 35°
2026-04-15 08:20 37.45917 126.43189 39 ft 18 kts 54°
2026-04-15 08:21 37.45997 126.43327 39 ft 21 kts 54°
2026-04-15 08:21 37.46068 126.43414 39 ft 12 kts 13°
2026-04-15 08:21 37.46130 126.43412 39 ft 6 kts 350°
2026-04-15 08:21 37.46143 126.43409 39 ft 0 kts 350°